QPF
0.00 0.00 0.00 0.00 0.00 0.00 0.00 0.00 0.00 0.00 0.00 0.00 0.00 0.00 0.00 0.00 0.00 0.00 0.00 0.00 0.00 0.00 0.00 0.00 0.00 0.00 0.00 0.00 0.00 0.00 0.00 0.00 0.00 0.00 0.00 0.00 0.00 0.00 0.00 0.00 0.00 0.00 0.00 0.00
0.00 0.00 0.00 0.00 0.00 0.00 0.00 0.00 0.00 0.00 0.00 0.00 0.00 0.00 0.00 0.00 0.00 0.00 0.00 0.00 0.00 0.00 0.00 0.00 0.00 0.00 0.00 0.00 0.00 0.00 0.00 0.00 0.00 0.00 0.00 0.00 0.00 0.00 0.00 0.00 0.00 0.00 0.00 0.00
0.00 0.00 0.00 0.00 0.00 0.00 0.00 0.00 0.00 0.00 0.00 0.00 0.00 0.00 0.00 0.00 0.00 0.00 0.00 0.00 0.00 0.00 0.00 0.00 0.00 0.00 0.00 0.00 0.00 0.00 0.00 0.00 0.00 0.00 0.00 0.00 0.00 0.00 0.00 0.00 0.00 0.00 0.00 0.00
0.00 0.00 0.00 0.00 0.00 0.00 0.00 0.00 0.00 0.00 0.00 0.00 0.00 0.00 0.00 0.00 0.00 0.00 0.00 0.00 0.00 0.00 0.00 0.00 0.00 0.00 0.00 0.00 0.00 0.00 0.00 0.00 0.00 0.00 0.00 0.00 0.00 0.00 0.00 0.00 0.00 0.00 0.00 0.00
0.00 0.00 0.00 0.00 0.00 0.00 0.00 0.00 0.00 0.00 0.00 0.00 0.00 0.00 0.00 0.00 0.00 0.00 0.00 0.00 0.00 0.00 0.00 0.00 0.00 0.00 0.00 0.00 0.00 0.00 0.00 0.00 0.00 0.00 0.00 0.00 0.00 0.00 0.00 0.00 0.00 0.00 0.00 0.00
0.00 0.00 0.00 0.00 0.00 0.00 0.00 0.00 0.00 0.00 0.00 0.00 0.00 0.00 0.00 0.00 0.00 0.00 0.00 0.00 0.00 0.00 0.00 0.00 0.00 0.00 0.00 0.00 0.00 0.00 0.00 0.00 0.00 0.00 0.00 0.00 0.00 0.00 0.00 0.00 0.00 0.00 0.00 0.00
0.00 0.00 0.00 0.00 0.00 0.00 0.00 0.01 0.01 0.00 0.00 0.00 0.00 0.00 0.00 0.00 0.00 0.00 0.00 0.00 0.00 0.00 0.00 0.00 0.00 0.00 0.00 0.00 0.00 0.00 0.00 0.00 0.00 0.00 0.00 0.00 0.00 0.00 0.00 0.00 0.00 0.00 0.00 0.00
0.00 0.00 0.00 0.00 0.00 0.00 0.00 0.01 0.02 0.02 0.00 0.00 0.00 0.00 0.00 0.00 0.00 0.00 0.00 0.00 0.00 0.00 0.00 0.00 0.00 0.00 0.00 0.00 0.00 0.00 0.00 0.00 0.00 0.00 0.00 0.00 0.00 0.00 0.00 0.00 0.00 0.00 0.00 0.00
0.00 0.00 0.00 0.00 0.00 0.00 0.00 0.01 0.02 0.02 0.01 0.02 0.00 0.00 0.00 0.00 0.00 0.00 0.00 0.00 0.00 0.00 0.00 0.00 0.00 0.00 0.00 0.00 0.00 0.00 0.00 0.00 0.00 0.00 0.00 0.00 0.00 0.00 0.00 0.00 0.00 0.00 0.00 0.00
0.00 0.00 0.00 0.00 0.00 0.00 0.00 0.00 0.02 0.04 0.02 0.01 0.00 0.00 0.00 0.00 0.00 0.00 0.00 0.00 0.00 0.00 0.00 0.00 0.00 0.00 0.00 0.00 0.00 0.00 0.00 0.00 0.00 0.00 0.00 0.00 0.00 0.00 0.00 0.00 0.00 0.00 0.00 0.00
0.00 0.00 0.00 0.00 0.00 0.00 0.00 0.02 0.04 0.04 0.02 0.01 0.00 0.01 0.02 0.00 0.00 0.00 0.00 0.00 0.00 0.00 0.00 0.00 0.00 0.00 0.00 0.00 0.00 0.00 0.00 0.00 0.00 0.00 0.00 0.00 0.00 0.01 0.01 0.00 0.00 0.00 0.00 0.01
0.00 0.00 0.00 0.00 0.00 0.00 0.00 0.01 0.04 0.03 0.02 0.03 0.02 0.00 0.00 0.00 0.00 0.00 0.00 0.00 0.01 0.00 0.00 0.01 0.01 0.00 0.00 0.00 0.00 0.00 0.00 0.00 0.00 0.00 0.01 0.01 0.02 0.02 0.01 0.02 0.00 0.00 0.00 0.01
0.00 0.00 0.00 0.00 0.00 0.01 0.00 0.01 0.01 0.01 0.04 0.03 0.03 0.01 0.00 0.00 0.00 0.00 0.00 0.00 0.00 0.00 0.02 0.04 0.04 0.01 0.02 0.01 0.00 0.00 0.00 0.00 0.00 0.01 0.02 0.03 0.05 0.03 0.06 0.06 0.02 0.00 0.00 0.00
0.00 0.01 0.00 0.00 0.00 0.00 0.00 0.00 0.00 0.00 0.02 0.02 0.03 0.00 0.00 0.00 0.00 0.00 0.01 0.00 0.00 0.00 0.12 0.22 0.07 0.04 0.04 0.18 0.08 0.05 0.04 0.01 0.01 0.02 0.03 0.07 0.06 0.04 0.06 0.02 0.01 0.00 0.00 0.00
0.00 0.00 0.00 0.00 0.00 0.00 0.00 0.00 0.00 0.00 0.00 0.01 0.00 0.00 0.00 0.00 0.00 0.00 0.00 0.00 0.00 0.00 0.02 0.12 0.13 0.13 0.22 0.35 0.17 0.08 0.02 0.01 0.02 0.02 0.02 0.03 0.02 0.02 0.02 0.00 0.00 0.00 0.00 0.00
0.01 0.00 0.00 0.00 0.00 0.00 0.00 0.00 0.00 0.00 0.00 0.00 0.00 0.00 0.00 0.00 0.00 0.00 0.00 0.00 0.00 0.00 0.00 0.00 0.06 0.23 0.35 0.30 0.24 0.22 0.05 0.01 0.01 0.01 0.01 0.01 0.01 0.00 0.00 0.00 0.00 0.00 0.00 0.00
0.00 0.00 0.01 0.00 0.00 0.00 0.00 0.00 0.01 0.01 0.02 0.03 0.01 0.01 0.00 0.00 0.00 0.00 0.00 0.00 0.00 0.00 0.00 0.00 0.00 0.19 0.52 0.25 0.23 0.33 0.05 0.01 0.01 0.01 0.00 0.00 0.00 0.00 0.00 0.00 0.00 0.00 0.00 0.00
0.00 0.00 0.01 0.00 0.00 0.00 0.00 0.00 0.00 0.00 0.00 0.01 0.00 0.00 0.00 0.00 0.00 0.00 0.00 0.00 0.00 0.00 0.00 0.00 0.02 0.21 0.26 0.42 0.30 0.15 0.03 0.01 0.00 0.00 0.00 0.00 0.00 0.00 0.00 0.00 0.00 0.00 0.00 0.00
0.00 0.00 0.00 0.00 0.00 0.00 0.00 0.00 0.00 0.00 0.00 0.00 0.00 0.00 0.00 0.00 0.00 0.00 0.00 0.00 0.00 0.00 0.00 0.00 0.03 0.15 0.21 0.27 0.27 0.02 0.04 0.01 0.00 0.00 0.00 0.00 0.00 0.00 0.00 0.00 0.00 0.00 0.00 0.00
0.01 0.00 0.00 0.00 0.01 0.00 0.00 0.00 0.00 0.00 0.00 0.00 0.00 0.00 0.00 0.00 0.00 0.00 0.00 0.00 0.00 0.00 0.00 0.02 0.09 0.19 0.22 0.20 0.07 0.03 0.00 0.00 0.00 0.00 0.00 0.00 0.00 0.00 0.00 0.00 0.00 0.00 0.00 0.01
0.01 0.00 0.00 0.00 0.01 0.00 0.00 0.00 0.00 0.00 0.01 0.00 0.00 0.00 0.00 0.00 0.00 0.00 0.00 0.00 0.00 0.00 0.00 0.07 0.10 0.14 0.16 0.09 0.00 0.00 0.00 0.00 0.00 0.00 0.00 0.00 0.00 0.00 0.00 0.00 0.00 0.00 0.00 0.01
0.01 0.00 0.00 0.00 0.01 0.01 0.00 0.00 0.00 0.00 0.00 0.00 0.00 0.00 0.00 0.00 0.00 0.00 0.00 0.00 0.00 0.00 0.02 0.07 0.09 0.28 0.24 0.04 0.00 0.00 0.00 0.00 0.00 0.00 0.00 0.00 0.00 0.00 0.00 0.00 0.00 0.00 0.01 0.01
0.03 0.01 0.00 0.00 0.00 0.00 0.00 0.01 0.00 0.00 0.00 0.00 0.00 0.00 0.00 0.00 0.00 0.00 0.00 0.00 0.00 0.00 0.04 0.07 0.16 0.20 0.17 0.01 0.00 0.00 0.00 0.00 0.00 0.00 0.00 0.00 0.00 0.00 0.00 0.00 0.00 0.01 0.01 0.04
0.03 0.02 0.00 0.00 0.00 0.00 0.01 0.01 0.01 0.01 0.00 0.00 0.00 0.00 0.00 0.00 0.00 0.00 0.00 0.00 0.01 0.04 0.12 0.08 0.18 0.26 0.09 0.00 0.00 0.00 0.00 0.00 0.00 0.00 0.00 0.00 0.00 0.00 0.00 0.02 0.03 0.04 0.08 0.16
0.02 0.02 0.02 0.02 0.00 0.00 0.00 0.00 0.01 0.00 0.00 0.00 0.00 0.00 0.00 0.00 0.00 0.00 0.00 0.01 0.01 0.07 0.14 0.10 0.26 0.19 0.03 0.00 0.00 0.00 0.00 0.00 0.00 0.00 0.00 0.00 0.00 0.00 0.02 0.12 0.13 0.10 0.06 0.13
0.04 0.02 0.02 0.01 0.00 0.00 0.00 0.01 0.01 0.00 0.00 0.00 0.00 0.00 0.00 0.00 0.00 0.00 0.00 0.01 0.02 0.07 0.08 0.18 0.28 0.09 0.02 0.00 0.00 0.00 0.00 0.00 0.00 0.00 0.00 0.00 0.00 0.00 0.00 0.01 0.02 0.01 0.01 0.01
MSLP
1007.31 1007.60 1008.03 1007.66 1007.29 1007.12 1006.80 1006.19 1005.44 1004.43 1004.25 1003.93 1003.56 1002.39 1001.33 1001.12 1000.52 999.90 998.82 998.81 998.59 998.33 997.85 997.96 998.35 998.65 998.54 998.55 998.55 999.05 999.76 1000.37 1000.94 1001.73 1002.42 1002.95 1003.19 1003.42 1003.56 1003.59 1003.67 1003.98 1004.22 1004.62
1007.89 1007.68 1007.27 1007.03 1006.76 1006.68 1006.53 1006.09 1005.48 1004.59 1004.55 1004.35 1003.57 1002.62 1001.60 1001.24 1000.69 1000.05 999.44 998.51 997.89 997.87 997.56 997.33 997.51 997.83 998.26 998.49 998.22 998.52 999.01 999.65 1000.20 1000.66 1001.32 1001.82 1002.27 1002.50 1002.70 1002.68 1002.86 1003.01 1003.40 1003.84
1008.31 1007.91 1007.23 1006.98 1006.80 1006.76 1006.56 1006.31 1005.84 1005.32 1004.97 1004.64 1004.17 1003.39 1001.83 1000.64 1000.39 999.87 999.11 998.61 998.00 997.75 997.39 996.88 997.08 997.26 997.36 997.93 998.16 997.89 998.45 998.81 999.28 999.75 1000.63 1001.11 1001.64 1001.94 1002.37 1002.47 1002.35 1002.46 1002.79 1003.44
1008.10 1007.63 1007.24 1007.00 1006.98 1006.94 1006.57 1006.54 1006.10 1005.90 1005.61 1005.20 1004.94 1003.05 1002.80 1001.30 1000.18 1000.01 999.14 998.49 997.71 997.33 997.21 996.88 996.68 996.85 996.98 997.37 997.23 997.27 997.91 998.44 998.85 999.45 999.86 1000.38 1000.96 1001.69 1001.58 1001.77 1001.99 1002.06 1002.42 1003.01
1007.79 1007.20 1006.99 1007.00 1007.33 1007.58 1007.20 1007.17 1007.04 1006.78 1006.40 1006.04 1005.17 1004.49 1001.85 1001.83 1000.37 1000.02 999.20 998.41 997.72 997.07 996.66 996.42 996.12 996.17 996.26 996.78 997.51 997.41 997.58 998.12 998.31 998.60 999.07 999.78 1000.60 1000.74 1001.06 1001.42 1001.79 1002.12 1002.51 1002.78
1007.01 1006.58 1006.94 1007.44 1007.68 1008.05 1008.08 1007.92 1007.38 1007.31 1007.16 1006.42 1005.36 1004.92 1002.08 1002.18 1001.19 999.83 999.34 998.47 997.50 996.95 996.18 995.50 995.45 995.19 995.51 995.94 996.31 996.93 997.48 997.68 997.90 998.18 998.64 999.14 999.79 1000.39 1001.05 1001.37 1001.91 1002.26 1002.72 1003.01
1007.29 1007.35 1007.13 1007.56 1008.09 1008.21 1008.24 1008.91 1009.18 1008.74 1007.87 1006.22 1005.52 1004.75 1002.72 1001.40 1000.66 1000.06 999.64 998.75 997.70 997.02 996.52 995.35 994.72 994.74 994.65 995.03 995.43 995.95 996.46 996.92 997.16 997.47 997.91 998.36 999.00 999.72 1000.44 1001.11 1001.63 1002.30 1002.79 1003.15
1007.88 1007.77 1007.62 1007.72 1007.92 1007.89 1008.06 1009.01 1010.20 1009.66 1008.78 1008.11 1006.68 1004.31 1002.26 1001.40 1000.76 1001.29 1000.44 999.47 998.10 997.34 996.58 995.66 994.77 993.93 993.85 993.88 994.17 994.60 995.27 995.80 996.20 996.71 997.21 997.68 998.47 999.23 1000.04 1000.67 1001.35 1001.81 1002.45 1002.90
1008.65 1007.89 1007.71 1007.62 1007.26 1007.64 1007.78 1009.03 1009.56 1010.28 1009.79 1009.10 1006.37 1004.22 1002.54 1002.63 1002.80 1002.58 1002.09 1000.89 999.95 998.66 996.72 994.75 993.91 993.26 992.75 992.88 993.17 993.64 994.06 994.52 995.24 995.85 996.58 997.32 998.10 999.00 999.67 1000.39 1001.03 1001.64 1002.13 1002.67
1009.48 1008.42 1008.24 1007.55 1007.53 1007.35 1007.66 1008.11 1009.54 1010.27 1009.97 1008.67 1006.82 1005.49 1004.43 1004.29 1003.85 1003.49 1002.61 1002.05 1000.52 998.58 996.72 994.32 993.30 992.75 992.24 991.87 992.26 992.80 993.28 993.83 994.60 995.35 996.11 996.99 997.91 998.74 999.23 1000.00 1000.82 1001.52 1002.03 1002.36
1010.23 1010.27 1008.59 1008.58 1008.10 1007.50 1007.30 1008.57 1009.87 1010.75 1009.83 1008.82 1007.37 1006.17 1005.20 1005.84 1005.08 1003.84 1002.68 1001.84 1000.88 999.62 997.58 995.71 993.19 991.99 991.78 991.37 991.47 992.07 992.89 993.57 994.54 995.27 996.08 996.78 997.60 998.41 998.91 999.69 1000.43 1001.14 1001.71 1002.24
1011.72 1011.28 1009.91 1008.76 1007.94 1007.65 1007.25 1007.84 1009.37 1009.90 1009.62 1008.80 1007.56 1006.12 1005.32 1004.99 1004.45 1003.82 1002.73 1001.18 1000.54 999.32 997.80 996.18 994.28 993.49 991.85 991.44 991.49 991.85 992.52 993.30 994.22 995.10 995.82 996.54 997.32 998.07 998.84 999.58 1000.23 1000.96 1001.69 1002.19
1012.33 1012.07 1011.31 1008.64 1007.82 1008.05 1008.05 1007.97 1008.44 1008.77 1008.27 1007.95 1007.11 1005.68 1003.84 1003.89 1003.41 1003.12 1002.10 1000.69 1000.15 998.64 998.01 996.44 994.64 994.91 992.16 991.64 991.40 991.86 992.40 993.16 994.03 994.83 995.78 996.73 997.40 998.09 998.91 999.52 1000.35 1000.87 1001.59 1002.19
1012.70 1012.76 1012.39 1011.09 1009.49 1008.99 1008.28 1007.57 1007.36 1008.01 1007.81 1006.78 1005.70 1004.53 1003.41 1003.07 1002.67 1001.93 1000.89 1000.75 999.22 998.53 997.46 996.99 996.16 994.65 991.88 992.19 992.42 992.37 993.07 993.25 993.78 995.07 996.12 997.07 997.89 998.39 999.07 999.85 1000.53 1001.03 1001.55 1002.20
1012.89 1012.48 1011.89 1010.52 1009.58 1008.24 1007.01 1006.49 1006.39 1006.18 1006.09 1005.74 1003.73 1003.17 1001.73 1001.92 1001.65 1001.49 1000.89 1000.36 999.45 996.93 995.27 995.10 994.15 993.72 993.36 991.94 992.35 992.01 993.32 993.37 994.26 995.32 996.16 997.29 998.16 999.00 999.69 1000.28 1000.78 1001.41 1001.88 1002.41
1012.52 1012.22 1011.61 1009.99 1008.64 1007.42 1006.18 1005.51 1005.33 1004.96 1004.31 1004.48 1003.39 1002.34 1001.10 1000.84 1000.32 1000.41 999.33 997.98 997.42 995.87 994.45 993.23 992.06 991.93 991.69 991.58 990.70 991.92 993.22 994.01 994.10 995.32 996.52 997.49 998.56 999.24 999.86 1000.42 1001.04 1001.73 1002.33 1002.77
1012.72 1012.50 1011.42 1009.49 1007.82 1006.96 1005.80 1005.09 1004.88 1004.88 1004.87 1004.90 1003.96 1002.89 1001.45 1000.84 1000.28 999.56 998.25 997.15 995.67 993.29 993.10 992.71 991.85 992.35 993.14 993.09 993.20 992.73 993.57 994.24 994.58 995.57 996.70 997.76 998.65 999.48 1000.08 1000.56 1001.39 1002.04 1002.61 1002.95
1011.86 1012.01 1011.30 1009.69 1008.31 1007.03 1005.26 1005.30 1005.20 1005.39 1005.02 1004.60 1004.07 1002.99 1002.15 1000.97 999.72 997.97 997.26 996.23 994.81 993.22 993.26 992.68 992.75 993.12 991.78 993.40 992.54 993.09 993.54 994.16 994.84 996.02 997.01 998.04 998.81 999.62 1000.08 1001.06 1001.75 1002.40 1002.84 1003.45
1010.98 1011.47 1011.39 1010.59 1009.26 1007.23 1005.88 1006.65 1007.08 1007.13 1005.86 1005.42 1004.96 1004.35 1003.24 1002.00 1000.28 997.65 997.29 996.88 996.09 994.60 993.51 992.40 992.78 993.56 992.60 992.71 992.76 993.03 993.12 994.03 995.15 996.33 997.46 998.39 999.09 999.84 1000.66 1001.48 1002.17 1002.74 1003.16 1003.86
1010.64 1010.88 1011.37 1010.87 1009.87 1008.33 1007.69 1007.50 1007.50 1007.48 1006.51 1005.96 1006.16 1005.73 1004.70 1003.56 1002.56 999.66 998.48 997.44 996.19 994.93 993.56 993.88 993.92 994.13 993.18 993.85 992.35 992.96 993.37 994.32 995.29 996.69 997.67 998.49 999.20 1000.04 1000.99 1001.69 1002.36 1002.87 1003.41 1004.08
1010.40 1010.58 1010.78 1010.62 1009.90 1008.39 1007.79 1007.72 1007.78 1007.80 1007.69 1006.56 1006.41 1005.83 1005.31 1004.46 1003.32 1000.77 999.20 997.80 996.53 995.04 993.80 994.42 994.61 993.39 993.13 993.63 992.99 993.21 993.48 994.52 995.65 996.80 997.81 998.69 999.35 1000.26 1001.10 1001.85 1002.41 1003.07 1003.73 1004.41
1010.02 1010.15 1010.11 1009.79 1009.36 1008.44 1007.66 1007.80 1008.24 1007.36 1007.23 1007.00 1006.79 1005.85 1004.75 1003.54 1002.08 1000.82 999.28 998.01 997.01 995.40 993.98 994.71 994.25 992.36 994.49 993.60 993.10 993.19 993.92 994.75 995.84 997.10 997.91 998.85 999.74 1000.48 1001.23 1001.92 1002.54 1003.17 1003.99 1004.80
1009.30 1009.77 1009.93 1009.69 1008.20 1007.17 1007.15 1007.42 1007.36 1006.65 1006.45 1006.20 1005.85 1004.73 1003.61 1002.02 1000.48 999.91 999.37 998.51 997.48 996.00 994.40 995.02 994.38 993.56 993.27 992.91 993.11 993.25 994.10 995.00 996.11 997.16 998.16 999.18 1000.02 1000.78 1001.45 1002.15 1002.90 1003.56 1004.31 1005.05
1008.77 1008.82 1008.93 1008.66 1007.34 1007.13 1006.99 1006.79 1006.54 1006.31 1005.54 1005.73 1005.19 1004.12 1002.85 1001.79 1000.97 1000.05 999.41 998.56 997.49 996.27 994.53 993.65 993.40 993.64 993.53 992.76 993.29 994.01 994.68 995.30 996.32 997.71 998.51 999.62 1000.21 1001.15 1001.88 1002.52 1003.08 1003.75 1004.43 1005.15
1008.30 1008.12 1007.79 1007.63 1006.98 1006.97 1006.67 1006.24 1005.78 1005.72 1005.70 1005.08 1004.34 1003.42 1002.33 1001.52 1001.04 1000.53 999.54 998.54 997.70 996.43 994.79 994.41 994.66 994.62 993.55 993.52 994.10 994.51 995.17 995.88 997.04 998.07 999.13 999.96 1000.70 1001.69 1002.82 1003.63 1004.27 1004.27 1004.44 1004.74
1007.17 1007.07 1006.82 1006.52 1006.59 1006.73 1006.41 1005.89 1005.53 1005.50 1005.37 1004.73 1003.99 1002.75 1002.11 1001.87 1001.32 1000.11 998.87 997.68 996.76 995.37 995.03 994.99 992.63 994.12 993.90 994.12 994.38 995.00 995.49 996.34 997.52 998.67 999.38 999.96 1000.88 1001.88 1002.85 1003.65 1004.61 1005.03 1004.97 1004.84
Thickness
5626 5610 5600 5615 5625 5627 5628 5631 5632 5652 5654 5646 5644 5662 5690 5700 5705 5711 5729 5737 5744 5756 5777 5784 5784 5787 5795 5802 5807 5810 5806 5805 5804 5800 5796 5795 5794 5794 5794 5793 5792 5788 5785 5782
5605 5596 5615 5623 5624 5618 5615 5614 5620 5637 5640 5635 5643 5648 5675 5685 5693 5704 5711 5724 5737 5743 5759 5774 5782 5786 5783 5787 5794 5799 5800 5797 5800 5803 5799 5797 5794 5793 5792 5792 5792 5791 5786 5782
5586 5596 5612 5609 5604 5599 5600 5600 5605 5607 5619 5626 5625 5623 5654 5682 5688 5698 5709 5715 5726 5731 5743 5761 5768 5775 5780 5777 5781 5787 5790 5792 5795 5798 5796 5794 5789 5788 5784 5784 5784 5786 5784 5777
5586 5595 5595 5594 5589 5590 5582 5597 5599 5596 5592 5580 5609 5595 5625 5659 5672 5677 5691 5700 5714 5724 5735 5748 5757 5763 5771 5773 5781 5786 5785 5784 5789 5789 5791 5788 5784 5774 5779 5777 5774 5780 5779 5772
5571 5579 5579 5578 5574 5574 5573 5580 5578 5580 5576 5572 5587 5571 5628 5637 5651 5660 5674 5688 5701 5714 5725 5732 5746 5757 5765 5768 5766 5773 5778 5778 5783 5786 5788 5783 5774 5776 5778 5772 5766 5768 5766 5764
5576 5589 5575 5564 5566 5561 5557 5556 5564 5564 5561 5546 5580 5572 5604 5610 5632 5655 5661 5672 5693 5708 5721 5731 5741 5754 5758 5764 5766 5764 5765 5770 5775 5780 5781 5777 5773 5769 5765 5762 5758 5757 5753 5752
5568 5566 5573 5562 5544 5548 5545 5529 5520 5518 5531 5544 5579 5568 5586 5616 5629 5636 5639 5656 5678 5694 5699 5717 5732 5738 5756 5756 5761 5764 5765 5765 5770 5773 5776 5776 5771 5766 5760 5756 5754 5747 5743 5742
5534 5539 5557 5555 5542 5539 5541 5530 5503 5513 5528 5522 5546 5559 5583 5609 5617 5602 5619 5638 5660 5675 5689 5704 5721 5741 5750 5762 5765 5767 5768 5769 5770 5771 5772 5772 5768 5764 5757 5754 5747 5743 5740 5737
5533 5545 5560 5556 5557 5549 5543 5523 5533 5505 5520 5514 5548 5574 5590 5586 5575 5579 5588 5608 5623 5641 5672 5701 5720 5733 5748 5758 5767 5767 5772 5774 5773 5772 5769 5765 5761 5756 5751 5747 5742 5739 5736 5732
5537 5533 5550 5553 5549 5547 5537 5545 5510 5513 5512 5521 5545 5552 5554 5557 5556 5563 5575 5585 5609 5637 5664 5695 5712 5726 5740 5753 5761 5765 5768 5770 5770 5766 5764 5758 5753 5748 5748 5743 5738 5733 5730 5728
5527 5523 5536 5536 5534 5531 5538 5514 5505 5499 5515 5521 5520 5533 5553 5537 5543 5549 5566 5583 5598 5619 5646 5672 5703 5725 5736 5750 5757 5759 5761 5762 5759 5758 5755 5751 5747 5744 5744 5740 5734 5730 5726 5721
5510 5506 5513 5525 5536 5537 5540 5530 5509 5503 5511 5514 5520 5526 5544 5539 5546 5547 5561 5581 5590 5612 5630 5654 5676 5693 5722 5736 5747 5753 5755 5754 5753 5751 5748 5746 5743 5743 5738 5733 5730 5725 5718 5716
5502 5496 5490 5523 5530 5516 5511 5522 5520 5515 5515 5515 5514 5524 5559 5546 5546 5550 5558 5577 5587 5609 5620 5642 5664 5671 5701 5723 5739 5745 5748 5747 5745 5745 5741 5738 5737 5734 5729 5727 5722 5719 5714 5709
5496 5494 5488 5490 5507 5502 5505 5518 5526 5518 5502 5522 5530 5537 5552 5546 5549 5556 5563 5567 5587 5599 5619 5628 5624 5661 5695 5704 5718 5729 5730 5738 5740 5736 5732 5728 5726 5726 5722 5719 5714 5712 5708 5703
5490 5492 5498 5505 5506 5515 5522 5526 5532 5525 5525 5520 5543 5546 5560 5550 5550 5553 5559 5565 5585 5613 5635 5639 5644 5661 5674 5703 5710 5725 5723 5731 5732 5728 5726 5721 5718 5716 5712 5709 5707 5703 5700 5696
5490 5492 5491 5504 5515 5520 5527 5531 5530 5536 5545 5531 5545 5549 5561 5559 5567 5565 5573 5591 5601 5616 5639 5658 5667 5675 5689 5684 5693 5716 5720 5723 5729 5723 5717 5715 5710 5708 5703 5701 5700 5695 5691 5686
5474 5483 5497 5499 5526 5523 5516 5529 5531 5532 5527 5522 5525 5536 5558 5560 5563 5570 5582 5590 5607 5639 5648 5656 5670 5672 5662 5665 5691 5710 5715 5716 5718 5714 5711 5707 5704 5700 5698 5698 5691 5688 5683 5680
5486 5488 5498 5498 5512 5503 5535 5528 5529 5522 5526 5527 5528 5540 5551 5558 5573 5587 5595 5600 5617 5635 5643 5655 5665 5664 5669 5670 5698 5709 5712 5712 5711 5707 5705 5701 5699 5694 5694 5687 5684 5679 5677 5673
5501 5497 5487 5479 5485 5524 5533 5509 5498 5492 5507 5516 5516 5524 5538 5549 5563 5589 5593 5597 5607 5623 5642 5664 5668 5660 5676 5678 5699 5707 5712 5710 5707 5701 5696 5693 5692 5689 5685 5679 5675 5673 5670 5665
5508 5503 5489 5482 5485 5477 5503 5501 5499 5490 5496 5503 5497 5501 5515 5531 5531 5569 5583 5593 5610 5634 5652 5653 5658 5659 5657 5675 5704 5706 5709 5705 5703 5695 5692 5692 5690 5684 5677 5674 5671 5669 5666 5661
5496 5494 5486 5488 5487 5501 5496 5498 5491 5481 5492 5488 5489 5496 5502 5509 5527 5557 5574 5593 5614 5629 5643 5648 5651 5651 5661 5684 5703 5704 5705 5700 5697 5694 5691 5687 5685 5678 5675 5670 5668 5663 5660 5656
5495 5492 5495 5494 5489 5481 5494 5488 5479 5484 5479 5479 5483 5493 5506 5523 5539 5555 5573 5595 5608 5621 5638 5643 5652 5658 5660 5686 5701 5702 5700 5698 5696 5691 5687 5683 5679 5676 5672 5667 5663 5660 5655 5650
5488 5491 5487 5487 5491 5502 5493 5481 5478 5481 5478 5481 5485 5499 5517 5538 5558 5563 5574 5585 5597 5615 5634 5641 5651 5667 5681 5696 5700 5700 5697 5698 5693 5688 5684 5679 5673 5670 5666 5661 5657 5653 5650 5646
5508 5494 5487 5487 5502 5493 5488 5483 5478 5481 5488 5484 5490 5503 5521 5539 5555 5567 5576 5588 5602 5617 5636 5651 5658 5658 5677 5696 5696 5695 5695 5696 5689 5681 5678 5673 5669 5663 5659 5658 5655 5651 5649 5644
5503 5501 5502 5496 5496 5489 5484 5482 5486 5483 5482 5486 5495 5507 5527 5543 5554 5561 5577 5590 5601 5616 5636 5645 5650 5662 5679 5686 5686 5691 5691 5689 5681 5677 5672 5667 5663 5655 5647 5642 5643 5649 5647 5647
5513 5507 5502 5495 5491 5481 5479 5483 5486 5481 5482 5487 5495 5513 5530 5536 5548 5568 5585 5601 5613 5629 5631 5638 5651 5672 5677 5680 5685 5686 5689 5685 5677 5669 5668 5665 5659 5653 5647 5644 5640 5633 5636 5640